Tracking 35274 objects as of 12-Sep-2026
HD Live streaming from Space Station
objects crossing your sky now

COSMOS 1663 DEB


COSMOS 1663 DEB is no longer on orbit


NORAD ID: 15882
Int'l Code: 1985-052G
Launch date: June 21, 1985
Source: Commonwealth of Independent States (former USSR) (CIS)
Launch site: PLESETSK MISSILE AND SPACE COMPLEX (PKMTR)
Decay date: 1985-08-18

Note: This is SATELLITE DEBRIS
Your satellite tracking list
Your tracking list is empty




NASA's NSSDC Master Catalog

Two Line Element Set (TLE):
1 15882U 85052  G 85187.04883938  .12217139 -23107-5 +11145-1 0  9994
2 15882 082.3069 035.3038 0041372 270.2921 089.9526 16.10501387002368
Source of the keplerian elements: AFSPC